Dewpoint
45 46 45 44 43 42 41 41 42 40 43 46 43 44 44 43 39 49 53 54 52 48 43 44 43 41 41 45 44 44 44 43 43 41 41 40 43 43 40 38 38 39 38 39 37 38 36 37 35 37 37 37 38 41 39 40 38 37 33 36 36 34 28 27 28 30 30 30 31 31 29 29 28 30 31 27 27 27 25 26 27 26 27 25 23 22 25
43 43 42 41 41 39 39 39 40 40 40 42 43 43 41 43 45 46 52 54 53 45 37 38 40 40 42 42 41 44 42 43 42 40 41 40 42 40 40 41 39 38 40 38 36 37 32 36 37 35 36 33 39 38 36 35 37 36 35 31 37 27 27 30 27 25 23 24 25 25 32 32 29 27 30 32 32 30 30 30 27 26 27 26 25 19 23
42 41 40 40 39 38 37 38 38 38 38 40 39 39 41 41 44 46 48 51 50 42 42 39 39 40 39 40 40 41 42 43 42 41 41 41 41 41 40 39 40 39 39 38 38 39 36 32 35 34 35 36 40 38 39 36 35 37 38 37 34 29 28 25 21 19 16 14 13 14 20 25 28 30 28 29 28 27 26 24 23 23 26 27 23 22 23
41 40 40 39 39 38 38 37 36 37 37 36 39 39 41 39 33 43 43 47 46 46 46 44 41 39 39 39 39 40 39 42 44 43 42 42 43 42 40 40 38 37 36 35 35 36 35 34 30 30 32 34 37 37 36 38 38 38 37 33 34 26 27 26 25 24 21 21 21 26 27 23 21 23 23 23 23 23 23 25 22 19 20 20 20 20 20
41 40 39 39 39 39 38 37 37 37 37 37 36 38 40 38 33 39 36 44 44 42 44 44 43 40 39 36 38 37 38 38 41 44 39 41 40 41 40 39 37 36 36 35 34 35 35 36 35 33 32 32 35 38 36 36 36 37 35 35 29 28 26 28 28 28 28 27 27 27 28 24 23 21 21 23 23 22 21 21 19 21 21 18 20 20 19
41 40 40 39 39 39 39 37 36 37 36 38 37 35 38 33 34 37 41 39 35 38 39 42 42 42 40 37 37 36 36 36 35 41 41 41 40 37 38 38 38 36 35 34 31 32 32 31 31 34 33 32 33 35 36 34 36 36 34 35 28 22 21 24 24 22 24 24 21 20 20 19 19 19 20 20 21 21 20 19 21 22 20 18 19 21 20
41 40 40 39 39 39 38 37 37 37 38 38 36 33 38 36 28 31 35 36 38 39 40 41 42 41 41 38 37 35 35 34 36 38 36 38 36 38 32 33 35 36 36 35 31 30 25 24 27 26 29 29 29 28 31 32 34 32 29 29 28 25 22 21 23 20 21 22 23 24 24 23 22 21 21 21 20 20 20 20 20 19 19 20 20 21 22
42 42 41 40 40 40 39 38 37 38 38 39 34 31 33 30 29 27 37 36 34 36 39 41 41 39 40 37 37 36 35 34 35 37 35 32 34 37 33 33 35 35 34 33 30 29 29 30 27 29 28 25 28 27 28 26 28 27 25 27 28 24 21 22 19 17 17 21 23 23 22 20 18 20 21 20 20 20 22 23 23 23 22 22 22 21 21
43 41 40 40 41 41 40 39 38 40 41 36 32 32 32 34 33 35 32 33 33 32 35 38 39 38 39 37 37 36 36 35 35 35 39 33 31 33 32 31 33 32 33 34 34 35 31 31 30 31 29 26 30 27 26 27 25 26 26 25 24 24 18 19 20 16 17 18 17 18 19 18 18 20 21 21 21 20 21 22 22 21 19 20 19 18 18
41 40 40 41 41 41 40 39 39 40 41 36 32 29 36 35 33 36 33 30 34 29 32 34 36 34 36 35 35 35 35 35 35 31 37 35 36 36 32 35 33 32 32 32 33 33 31 32 32 31 30 31 30 31 31 30 26 24 23 25 22 22 20 19 19 19 17 20 18 18 19 19 18 18 19 20 20 20 20 21 22 21 20 19 18 18 17
41 41 41 41 42 41 41 40 39 40 40 34 32 31 34 32 33 32 32 27 29 29 30 32 33 33 33 34 32 33 34 33 33 29 29 33 33 35 35 33 31 28 28 32 33 32 31 30 30 30 30 28 28 28 29 30 30 28 25 22 22 21 21 20 20 18 17 16 15 20 18 11 10 16 19 19 18 19 18 18 19 19 19 19 16 17 19
42 43 43 42 42 42 42 41 40 40 39 37 35 33 36 36 34 34 29 22 22 30 28 28 30 31 30 32 32 32 33 32 32 35 29 33 32 33 34 33 31 26 33 32 31 31 33 33 31 29 28 27 28 28 28 27 28 30 29 25 21 20 23 23 23 20 17 16 14 14 9 9 15 22 21 19 16 15 16 16 16 15 15 15 15 15 17
43 42 43 43 42 42 42 41 41 40 40 39 36 32 36 37 35 30 28 24 19 28 25 25 30 31 31 32 32 32 31 30 31 33 33 30 28 29 31 31 30 31 32 30 30 28 25 21 22 22 24 25 27 27 26 26 26 27 27 28 25 22 22 22 21 20 18 16 14 6 4 12 17 14 19 22 18 19 19 16 16 15 15 16 17 11 9
43 42 42 42 43 42 41 41 41 41 41 40 37 34 36 35 31 31 30 24 22 24 29 26 29 29 30 30 30 29 29 27 25 28 29 31 29 28 28 31 32 31 31 27 24 23 17 16 11 10 10 15 13 12 20 24 25 24 24 26 26 24 21 19 15 15 9 10 11 10 11 10 10 11 14 17 14 14 14 10 14 16 15 16 15 10 10
43 43 43 43 43 42 41 41 41 41 41 40 38 35 36 35 34 31 30 29 23 23 27 22 25 28 29 28 29 27 27 26 26 25 26 26 26 28 30 31 30 30 27 22 18 19 14 8 4 5 5 5 2 5 9 12 16 24 24 23 23 23 21 20 17 13 15 10 8 8 7 4 6 12 14 18 19 19 18 14 11 16 15 18 14 10 5
43 43 43 42 42 42 41 40 40 40 40 41 39 37 34 36 36 34 32 28 23 16 20 27 29 28 27 27 28 25 25 25 25 23 21 21 23 25 26 28 29 27 26 22 18 12 13 7 4 4 2 0 0 -2 -2 4 3 14 20 20 21 21 22 22 19 17 15 12 11 9 5 5 13 12 14 17 17 16 16 9 6 16 15 12 11 8 8
42 42 42 42 41 41 41 40 40 40 41 41 39 37 34 37 35 33 30 28 28 19 28 28 28 29 25 24 27 25 23 22 23 19 18 19 21 21 21 23 24 26 25 21 17 12 11 10 9 8 3 5 -4 -2 5 3 -1 5 18 17 14 14 16 19 19 17 16 14 12 8 7 5 10 11 16 16 17 18 12 2 1 16 16 8 9 7 8
43 44 45 45 44 43 43 42 40 40 41 41 39 37 35 38 36 34 29 28 23 22 27 29 26 24 23 24 23 23 21 16 16 17 18 21 20 18 17 20 19 24 27 16 13 13 10 10 11 9 7 9 4 6 1 2 -4 2 11 12 10 11 11 16 14 16 15 17 13 13 13 15 12 13 13 17 20 11 4 1 4 16 14 6 8 9 11
43 42 44 45 45 45 44 44 44 43 42 42 41 40 37 38 37 36 31 28 26 22 27 31 30 27 29 29 24 24 22 20 20 19 20 18 19 18 20 19 20 16 21 17 15 12 12 8 10 7 5 6 5 4 4 1 2 3 7 2 7 9 8 10 11 12 10 10 9 9 10 14 17 14 14 17 11 5 5 10 16 20 18 16 14 12 13
44 44 44 45 44 43 43 43 43 43 43 43 43 40 38 39 38 35 30 26 26 23 27 30 29 27 29 27 25 23 22 22 22 19 19 13 18 20 17 14 20 17 19 19 13 13 12 11 12 8 9 9 7 10 5 5 8 5 3 4 4 7 7 3 6 6 7 7 7 7 5 11 14 10 10 12 10 10 11 12 12 20 19 17 14 14 14
43 43 43 44 43 45 45 44 44 44 44 44 43 41 40 40 39 37 35 31 25 25 25 31 31 29 30 29 29 28 24 21 22 18 19 22 22 17 10 10 17 16 17 17 11 12 12 12 13 9 11 10 11 8 4 3 6 12 7 6 7 6 1 3 7 8 2 3 3 3 11 16 17 13 9 9 16 18 15 16 14 17 16 14 14 15 15
43 43 43 43 44 43 43 43 44 44 45 45 44 42 39 40 40 39 37 34 30 27 25 36 35 30 30 31 31 29 29 28 28 24 20 21 21 17 15 16 18 14 14 18 14 12 14 13 13 10 10 10 11 10 6 5 4 6 7 9 4 10 7 10 3 3 4 4 5 6 10 11 17 14 13 13 14 14 15 15 16 15 16 15 14 12 11
40 40 41 43 43 42 43 43 44 44 44 44 43 41 39 41 40 40 38 33 33 34 36 34 33 33 34 34 34 32 31 30 29 27 24 22 21 21 19 19 17 19 17 20 18 15 15 15 12 13 10 13 12 9 6 11 5 6 6 11 9 12 10 10 7 7 7 8 8 11 9 9 10 15 15 13 14 15 16 15 16 15 15 14 13 13 12
42 41 41 41 41 41 42 43 43 43 43 43 42 41 40 41 41 40 37 37 32 30 32 33 30 29 29 29 32 31 31 30 30 29 29 25 21 19 20 20 21 20 16 20 22 16 16 15 14 13 10 11 10 10 8 7 9 8 6 8 10 11 10 11 9 8 6 4 6 7 8 8 9 9 10 13 15 14 15 15 16 15 15 14 13 12 11
42 42 43 43 42 42 41 41 42 42 42 42 43 43 40 40 42 39 35 30 30 30 25 29 31 31 32 33 32 31 30 30 31 29 29 28 25 21 21 21 21 20 19 20 24 20 17 13 14 13 10 11 14 10 13 9 9 10 8 10 8 10 11 9 9 9 7 6 6 6 7 7 8 8 9 9 10 10 11 12 13 13 11 11 10 10 10
43 42 43 43 43 43 43 42 42 41 42 42 42 41 40 40 42 40 36 36 34 31 26 25 27 33 33 32 31 32 33 32 31 31 30 29 29 26 24 26 27 26 23 24 23 21 19 17 16 17 15 14 15 13 12 13 13 11 12 11 10 9 8 8 7 8 8 8 8 9 8 9 9 9 10 10 11 10 10 9 9 9 9 10 10 11 11
42 43 42 42 43 43 42 42 42 43 43 42 42 42 41 41 42 39 35 35 31 26 29 25 29 29 31 31 32 33 34 33 31 30 30 31 30 28 27 25 26 27 25 24 23 21 19 19 18 16 17 16 18 17 15 14 14 13 12 12 12 12 11 10 9 9 9 8 8 7 7 8 7 9 9 9 9 9 9 8 8 7 9 10 11 12 12
41 42 42 42 43 42 41 42 43 43 43 43 42 42 42 40 41 42 40 38 32 27 27 26 27 28 32 30 33 33 33 33 32 31 30 30 30 29 28 27 27 27 26 25 23 22 21 18 17 20 20 20 17 17 18 17 17 17 17 14 13 10 10 9 9 10 9 9 10 10 9 8 8 8 8 8 8 8 9 9 9 10 10 11 11 11 10
40 39 40 41 42 41 41 43 43 43 43 43 40 38 39 41 42 43 41 39 35 32 30 27 27 24 22 26 33 33 34 33 32 31 31 30 30 29 28 28 27 27 27 26 25 24 22 21 21 20 19 20 17 17 17 16 15 14 16 16 16 14 14 12 10 10 10 11 12 11 11 10 9 9 9 8 11 11 10 10 10 11 12 11 11 12 12
39 39 40 40 40 40 41 42 42 42 43 42 37 35 32 33 40 41 43 41 39 34 30 27 23 25 28 25 26 31 32 34 33 32 31 30 30 30 29 29 29 29 27 26 25 22 23 23 22 21 21 22 19 20 17 17 16 16 17 17 16 16 15 16 15 13 11 12 11 11 11 10 10 10 10 10 11 12 11 11 12 12 10 10 10 8 5
38 40 40 40 39 39 40 40 42 42 42 36 34 30 27 25 32 41 42 41 40 36 31 30 26 31 25 27 28 30 31 33 32 32 32 31 30 30 31 30 30 30 27 26 25 24 25 22 22 22 22 22 22 19 17 16 15 15 16 17 17 17 16 16 16 15 14 14 13 13 15 13 13 13 13 12 11 12 12 11 11 13 8 7 4 3 1
38 38 39 39 39 38 40 41 40 40 41 35 33 31 30 32 38 40 41 41 40 34 30 26 25 26 24 28 28 28 31 32 32 31 31 32 30 31 30 30 28 30 29 25 23 25 24 25 23 23 22 23 24 21 20 18 16 15 16 16 16 16 16 16 15 15 15 15 15 16 16 15 15 14 14 14 11 11 11 9 6 7 7 3 0 1 -1
39 38 37 39 39 39 39 41 41 40 39 39 40 42 38 37 39 40 40 40 38 33 32 28 22 24 22 22 23 23 29 29 30 29 28 30 29 30 29 30 29 29 31 27 23 21 24 25 24 23 23 24 22 22 20 18 17 17 17 17 16 16 16 16 16 16 15 15 14 15 15 15 15 15 14 7 5 6 5 4 1 1 1 -1 -1 0 -1
38 38 38 38 40 40 39 40 41 41 41 37 33 35 38 39 40 41 39 36 33 32 32 27 22 22 19 24 16 21 31 27 27 28 25 29 29 28 27 28 29 26 29 26 24 24 24 24 22 22 24 22 23 20 17 18 19 19 18 17 18 18 17 16 16 16 16 15 14 14 14 13 7 3 3 2 -1 -1 1 -0 1 -1 -3 -2 -1 1 -0
37 38 38 38 39 39 39 39 39 37 33 33 34 37 38 40 39 41 38 34 28 27 27 26 25 20 18 15 11 18 29 26 25 27 24 27 29 27 27 25 27 23 23 29 25 23 22 22 22 19 18 21 20 17 19 19 18 18 18 18 19 19 18 17 17 17 17 16 17 14 5 5 4 3 5 3 -1 -1 -0 -1 -0 0 -1 -1 -1 0 -2
37 37 37 38 38 38 37 37 36 34 32 32 33 38 40 41 40 37 35 31 29 27 25 23 25 19 19 15 14 17 28 24 24 25 25 27 26 28 27 25 20 24 26 25 20 23 21 23 21 16 20 18 17 19 18 18 18 18 18 17 18 18 18 18 18 18 13 5 3 2 2 4 7 6 5 4 2 1 1 -1 -2 -1 -0 0 -1 -2 -4
36 36 37 37 35 34 32 33 36 34 32 37 39 39 40 37 34 34 33 32 31 28 26 25 22 21 19 17 19 21 23 17 23 23 25 23 22 27 25 23 19 24 23 22 22 21 22 24 21 18 18 17 17 18 18 18 18 18 18 18 19 19 19 18 19 16 6 3 1 1 2 1 2 3 1 2 1 0 -0 -1 -1 -2 -2 -0 -2 -4 -5
36 36 34 33 32 29 29 31 32 36 39 38 38 34 33 28 25 29 30 27 30 28 25 26 22 24 25 21 15 22 20 18 22 20 21 23 21 20 26 22 20 22 13 17 20 21 20 21 19 17 18 19 18 18 18 18 19 18 18 18 19 19 18 17 13 11 6 4 4 1 -1 -2 -0 2 4 4 1 -0 1 -1 -2 -4 -4 -5 -6 -6 -8
36 32 31 32 29 27 26 29 37 38 36 36 32 27 27 28 27 24 23 26 28 23 26 24 21 24 23 21 20 25 20 19 19 20 16 23 18 14 22 13 20 20 15 15 18 22 16 17 18 17 16 17 17 17 18 18 18 18 19 20 19 18 14 10 13 13 13 14 15 10 10 11 9 7 4 4 -0 -1 -4 -6 -7 -8 -9 -9 -10 -11 -12
32 30 29 28 27 27 35 38 39 37 34 29 30 27 20 27 23 17 21 18 20 21 24 19 23 23 23 21 20 19 24 19 17 18 17 20 21 13 18 15 17 16 10 13 14 21 15 12 16 15 14 16 17 17 17 18 18 19 19 14 6 3 4 6 -0 -2 -1 -5 -4 -5 -6 -6 -3 3 5 4 1 -3 -8 -9 -9 -10 -11 -12 -11 -12 -13
30 28 28 27 29 30 32 35 33 30 30 27 22 25 22 16 21 18 20 17 16 14 21 21 23 22 23 22 21 18 23 20 18 19 18 16 20 20 13 9 19 12 11 11 17 17 14 12 13 13 13 16 15 16 17 17 17 10 -0 -0 -1 -1 -1 -3 -5 -5 -5 -6 -9 -11 -11 -12 -11 -11 -8 -3 -2 -4 -7 -10 -12 -13 -14 -14 -13 -13 -12
28 28 29 26 26 29 28 29 29 26 25 27 19 14 19 18 13 1 10 14 15 13 13 20 17 19 20 22 22 21 20 19 19 21 17 14 21 13 11 13 17 10 7 12 18 14 13 10 10 10 13 15 18 18 16 12 12 7 -3 -4 -3 -4 -4 -5 -7 -9 -8 -7 -9 -11 -12 -13 -14 -14 -14 -13 -12 -11 -11 -12 -14 -14 -15 -15 -15 -15 -15
35 29 29 26 22 27 29 22 23 21 17 15 16 12 14 9 10 12 12 15 13 12 12 18 18 24 23 23 20 22 20 24 19 19 16 14 21 17 13 12 12 8 12 14 14 12 10 10 9 10 13 14 16 15 13 12 2 -2 -5 -7 -6 -7 -6 -7 -9 -11 -11 -11 -12 -14 -15 -15 -16 -18 -17 -17 -17 -18 -18 -15 -17 -18 -16 -17 -17 -16 -16
30 26 25 26 23 23 22 12 24 15 15 15 12 9 11 10 11 12 8 10 10 10 16 16 18 19 18 23 20 19 19 20 23 17 16 18 14 12 12 9 10 15 15 12 11 8 10 11 11 10 10 13 12 11 9 0 -1 -5 -8 -9 -9 -8 -9 -11 -12 -12 -13 -13 -14 -15 -16 -17 -17 -18 -19 -20 -20 -20 -21 -21 -18 -17 -17 -18 -18 -19 -19
21 22 23 21 17 22 19 10 24 16 11 12 13 10 12 10 11 12 11 12 13 13 19 19 20 19 19 15 18 18 20 17 24 14 12 17 12 14 9 8 13 12 10 8 9 7 5 5 8 8 11 11 10 -0 -2 -1 -1 -2 -7 -10 -10 -11 -11 -11 -12 -13 -14 -15 -16 -16 -17 -16 -17 -18 -21 -20 -21 -22 -21 -22 -20 -18 -18 -19 -19 -18 -17
21 20 20 14 9 18 14 11 10 7 14 14 13 14 13 14 13 13 13 14 15 18 18 19 20 19 16 12 16 17 19 18 16 15 17 16 10 9 14 14 12 8 8 8 6 5 7 8 10 10 12 12 6 -3 -4 -4 -5 -7 -7 -9 -11 -12 -12 -13 -13 -14 -14 -15 -16 -16 -16 -17 -17 -16 -17 -16 -19 -20 -22 -20 -18 -19 -19 -18 -20 -20 -19
23 24 20 18 14 14 14 12 10 11 13 15 15 15 15 15 14 15 16 15 17 19 19 21 20 19 16 14 14 14 15 17 13 16 14 10 9 13 15 10 5 6 4 4 4 5 7 9 10 10 4 -1 -5 -6 -6 -6 -8 -7 -8 -11 -12 -14 -14 -14 -14 -15 -15 -15 -15 -16 -16 -17 -18 -19 -19 -18 -19 -18 -18 -17 -18 -17 -18 -19 -20 -22 -22
18 21 19 12 9 12 11 13 14 10 8 10 7 7 8 9 13 11 11 12 19 20 19 18 14 15 13 16 13 9 12 12 12 13 13 11 11 5 7 6 4 7 7 4 4 6 7 9 8 1 -6 -6 -5 -7 -8 -8 -9 -10 -12 -13 -14 -15 -15 -16 -16 -16 -16 -17 -18 -18 -18 -19 -21 -20 -18 -20 -19 -18 -17 -20 -21 -21 -21 -21 -22 -22 -23
19 17 12 12 12 12 6 7 8 12 10 4 5 8 8 8 12 13 11 9 15 19 19 17 15 15 11 14 12 14 10 14 7 9 13 10 7 4 3 -1 2 2 6 8 8 8 8 -1 -10 -11 -11 -9 -8 -8 -8 -10 -11 -13 -14 -15 -16 -16 -16 -17 -18 -18 -19 -19 -20 -20 -19 -18 -20 -20 -21 -20 -20 -19 -18 -19 -21 -22 -23 -23 -23 -23 -23
14 10 -13 -1 4 5 6 8 7 7 5 1 2 7 7 7 10 8 7 10 13 18 19 21 18 13 10 10 6 9 10 13 9 12 8 7 7 7 5 -1 2 2 4 8 8 6 -10 -12 -11 -10 -11 -10 -10 -11 -12 -12 -12 -14 -16 -16 -17 -17 -18 -19 -19 -20 -20 -19 -19 -19 -21 -21 -19 -19 -20 -19 -18 -19 -22 -24 -25 -26 -26 -26 -25 -24 -23
15 13 12 10 7 6 8 4 7 6 6 8 7 8 10 9 9 8 7 8 14 13 10 5 7 8 9 7 8 5 5 14 10 9 7 7 10 6 5 3 4 7 5 -9 -9 -6 -8 -10 -11 -11 -12 -11 -12 -12 -13 -13 -14 -16 -17 -17 -17 -18 -19 -20 -21 -20 -20 -21 -21 -18 -23 -24 -21 -20 -21 -22 -23 -23 -25 -27 -26 -27 -27 -27 -27 -26 -26
13 11 11 8 7 7 9 11 10 10 8 7 8 6 7 7 4 5 9 11 13 13 7 9 7 6 5 4 6 7 10 6 8 10 7 9 7 3 3 6 5 1 -5 -5 -9 -11 -11 -11 -11 -12 -12 -11 -13 -13 -14 -16 -19 -20 -20 -20 -20 -19 -20 -19 -19 -19 -21 -24 -24 -26 -26 -26 -27 -28 -25 -26 -27 -27 -27 -26 -23 -23 -23 -24 -23 -23 -24